カタログに戻る

NIMBUS 2 DEB

運用中LEO
NORAD 24956·DEBRIS·🇺🇸 United States

打ち上げ May 15, 1966 から Vandenberg Space Force Base

Loading…

次のパス (今後24時間)

TLE

最新Source: Space-Track

元期: Sep 13, 2026, 12:04 UTC

1 24956U 66040C   26256.50309610  .00001536  00000-0  19364-2 0  9997
2 24956 100.4688  93.6807 0041938 171.8157 244.4123 13.65399307951442

AllMySatでNIMBUS 2 DEBをリアルタイム追跡

Download on the App Store